Hourly Data Report for January 04, 2013

BAGOTVILLE A
QUEBEC

48°20'00.000" N
71°00'00.000" W
159.10 m
7060400
71727
YBG

Download Data

Hourly Data (January 2013)
Hourly Data Report for January 4, 2013
TIME
LST
Temp Definition
°C
Dew Point Definition
°C
Rel Hum Definition
%
Precip. Amount Definition
mm

Wind Dir Definition
10's deg

Wind Spd Definition
km/h
Visibility Definition
km
Stn Press Definition
kPa
Hmdx Definition


Wind Chill Definition


Weather Definition


00:00 -22.2 -24.6 81   17 4 19.3 98.95   -26 Snow
01:00 -22.0 -24.4 81   14 6 24.1 98.81   -27 Mostly Cloudy
02:00 -21.0 -23.3 82   13 6 19.3 98.73   -26 Snow
03:00 -20.0 -23.0 77   13 6 8.0 98.67   -25 Snow
04:00 -19.6 -21.8 83   14 6 8.0 98.57   -25 Snow
05:00 -19.1 -21.3 83     0 6.4 98.56     Snow
06:00 -19.0 -21.1 83   11 6 6.4 98.49   -24 Snow
07:00 -18.9 -21.0 83   11 9 6.4 98.36   -25 Snow
08:00 -18.2 -20.9 79   10 9 1.6 98.27   -25 Snow
09:00 -17.5 -20.1 80   11 11 1.6 98.16   -25 Snow
10:00 -16.7 -19.2 81   10 13 1.2 98.07   -24 Snow
11:00 -15.5 -17.9 82   10 17 1.6 97.93   -24 Snow
12:00 -14.9 -16.7 86   14 6 1.6 97.84   -19 Snow
13:00 -14.7 -17.0 83   9 6 3.2 97.79   -19 Snow
14:00 -12.9 -14.9 85   9 6 19.3 97.84   -17 Snow
15:00 -12.3 -14.2 86     0 4.8 97.92     Snow
16:00 -12.0 -13.9 86     0 4.8 97.99     Snow
17:00 -10.9 -12.6 87     0 12.9 98.04     Snow
18:00 -10.6 -12.3 87   27 6 9.7 98.10   -14 Snow
19:00 -10.9 -12.6 87   25 6 16.1 98.14   -15 Snow
20:00 -10.4 -12.1 87   25 6 9.7 98.13   -14 Snow
21:00 -9.2 -11.1 86   29 7 8.0 98.14   -13 Snow
22:00 -9.2 -11.1 86   29 6 3.2 98.12   -13 Snow
23:00 -10.0 -11.2 91   27 4 3.2 98.13   -12 Snow

Notes on Data Quality.

Legend

  • E = Estimated
  • M = Missing
  • NA = Not Available*
  • [empty] = Indicates an unobserved value
Date modified: